Weather History for KHWY - January, 2014

Change the Weather History Date:

Monday, January 20, 2014

  Actual Average (KHEF) Record (KHEF)
Temperature  
Mean Temperature 46 °F -  
Max Temperature 59 °F 39 °F 64 °F (2006)
Min Temperature 33 °F 21 °F 8 °F (2008)
Degree Days  
Heating Degree Days 18    
Moisture  
Dew Point 31 °F    
Average Humidity 61    
Maximum Humidity 85    
Minimum Humidity 37    
Precipitation  
Precipitation 0.00 in - - ()
Sea Level Pressure  
Sea Level Pressure 29.74 in    
Wind  
Wind Speed 7 mph (SW)    
Max Wind Speed 16 mph    
Max Gust Speed 23 mph    
Visibility 10 miles    
Events      
Averages and records for this station are not official NWS values.
T = Trace of Precipitation, MM = Missing Value Source: NWS Daily Summary

Daily Weather History Graph

Daily Weather History Graph

Search for Another Location

Airport or City:

Trip Planner

Search our weather history database for the weather conditions in past years. The results will help you decide how hot, cold, wet, or windy it might be!

Date:

Astronomy

Jan. 20, 2014 Rise Set
Actual Time 7:24 AM EST 5:19 PM EST
Civil Twilight 6:56 AM EST 5:48 PM EST
Nautical Twilight 6:23 AM EST 6:20 PM EST
Astronomical Twilight 5:52 AM EST 6:52 PM EST
Moon 9:48 PM EST (1/20) 9:27 AM EST (1/20)
Length of Visible Light 10h 51m
Length of Day
9h 54m
Waning Gibbous, 83% of the Moon is Illuminated
Jan 20
Waning Gibbous
Jan 24
Last Quarter
Jan 30
New
Feb 6
First Quarter
Feb 14
Full

Hourly Weather History & Observations

Time (EST) Temp. Windchill Dew Point Humidity Pressure Visibility Wind Dir Wind Speed Gust Speed Precip Events Conditions
12:15 AM 40.6 °F 36.0 °F 29.1 °F 64% 29.74 in 10.0 mi SSW 6.9 mph - N/A   Clear
12:35 AM 40.5 °F 36.5 °F 29.3 °F 64% 29.74 in 10.0 mi SSW 5.8 mph - N/A   Clear
12:55 AM 40.1 °F 34.7 °F 29.7 °F 66% 29.74 in 10.0 mi SSW 8.1 mph - N/A   Clear
1:15 AM 40.3 °F 34.4 °F 29.5 °F 65% 29.73 in 10.0 mi SSW 9.2 mph - N/A   Clear
1:35 AM 40.5 °F 36.5 °F 29.3 °F 64% 29.72 in 10.0 mi SSW 5.8 mph - N/A   Clear
1:55 AM 40.5 °F 35.8 °F 29.8 °F 66% 29.72 in 10.0 mi SSW 6.9 mph - N/A   Clear
2:15 AM 40.3 °F 36.3 °F 29.5 °F 65% 29.72 in 10.0 mi South 5.8 mph - N/A   Clear
2:35 AM 39.9 °F 34.5 °F 29.7 °F 67% 29.72 in 10.0 mi South 8.1 mph - N/A   Clear
2:55 AM 39.2 °F 33.6 °F 30.0 °F 70% 29.72 in 10.0 mi South 8.1 mph - N/A   Clear
3:15 AM 39.2 °F 37.0 °F 30.0 °F 70% 29.72 in 10.0 mi SSW 3.5 mph - N/A   Clear
3:35 AM 37.8 °F 33.3 °F 29.7 °F 73% 29.71 in 10.0 mi South 5.8 mph - N/A   Clear
3:55 AM 37.4 °F 31.4 °F 29.7 °F 74% 29.70 in 10.0 mi SSW 8.1 mph - N/A   Clear
4:15 AM 37.9 °F 32.7 °F 29.3 °F 71% 29.71 in 10.0 mi SSW 6.9 mph - N/A   Clear
4:35 AM 38.5 °F 33.4 °F 29.5 °F 70% 29.71 in 10.0 mi SSW 6.9 mph - N/A   Clear
4:55 AM 39.2 °F 34.2 °F 29.3 °F 68% 29.71 in 10.0 mi SSW 6.9 mph 16.1 mph N/A   Clear
5:15 AM 39.2 °F 33.6 °F 29.3 °F 68% 29.71 in 10.0 mi SSW 8.1 mph - N/A   Clear
5:35 AM 39.2 °F 35.0 °F 29.1 °F 67% 29.70 in 10.0 mi SSW 5.8 mph - N/A   Clear
5:55 AM 39.0 °F 34.0 °F 28.9 °F 67% 29.69 in 10.0 mi South 6.9 mph - N/A   Clear
6:15 AM 38.8 °F 35.4 °F 28.4 °F 66% 29.69 in 10.0 mi SSW 4.6 mph - N/A   Clear
6:35 AM 38.3 °F 33.9 °F 28.6 °F 68% 29.69 in 10.0 mi SSW 5.8 mph - N/A   Clear
6:55 AM 38.5 °F 35.0 °F 28.4 °F 67% 29.69 in 10.0 mi SSW 4.6 mph - N/A   Clear
7:15 AM 38.5 °F 33.4 °F 28.4 °F 67% 29.69 in 10.0 mi SW 6.9 mph - N/A   Clear
7:35 AM 38.3 °F 32.5 °F 28.4 °F 68% 29.69 in 10.0 mi SSW 8.1 mph - N/A   Clear
7:55 AM 37.6 °F 32.3 °F 28.4 °F 69% 29.69 in 10.0 mi SW 6.9 mph - N/A   Clear
8:15 AM 37.4 °F 32.8 °F 28.2 °F 69% 29.69 in 10.0 mi SW 5.8 mph - N/A   Clear
8:35 AM 37.0 °F 34.5 °F 28.2 °F 70% 29.69 in 10.0 mi SSW 3.5 mph - N/A   Clear
8:55 AM 38.5 °F - 28.9 °F 69% 29.69 in 10.0 mi Calm Calm - N/A   Clear
9:15 AM 41.7 °F 39.8 °F 29.3 °F 61% 29.70 in 10.0 mi South 3.5 mph - N/A   Clear
9:35 AM 43.7 °F 40.3 °F 29.5 °F 57% 29.70 in 10.0 mi SSW 5.8 mph - N/A   Clear
9:55 AM 45.7 °F 41.5 °F 30.2 °F 55% 29.70 in 10.0 mi SW 8.1 mph - N/A   Clear
10:15 AM 47.7 °F - 30.6 °F 52% 29.70 in 10.0 mi SSW 11.5 mph - N/A   Clear
10:35 AM 49.5 °F - 31.3 °F 50% 29.71 in 10.0 mi SW 12.7 mph 16.1 mph N/A   Clear
10:55 AM 51.4 °F - 32.0 °F 47% 29.70 in 10.0 mi SSW 8.1 mph 17.3 mph N/A   Clear
11:15 AM 52.7 °F - 32.2 °F 46% 29.69 in 10.0 mi SSW 9.2 mph - N/A   Clear
11:35 AM 53.6 °F - 32.0 °F 44% 29.69 in 10.0 mi SSW 11.5 mph 17.3 mph N/A   Clear
11:55 AM 54.1 °F - 32.0 °F 43% 29.68 in 10.0 mi SW 11.5 mph 19.6 mph N/A   Clear
12:15 PM 55.0 °F - 32.2 °F 42% 29.67 in 10.0 mi SSW 12.7 mph 18.4 mph N/A   Clear
12:35 PM 55.4 °F - 32.5 °F 42% 29.66 in 10.0 mi SSW 10.4 mph 17.3 mph N/A   Clear
12:55 PM 55.9 °F - 32.5 °F 41% 29.66 in 10.0 mi SSW 15.0 mph 19.6 mph N/A   Clear
1:15 PM 56.3 °F - 32.9 °F 41% 29.66 in 10.0 mi SW 10.4 mph 16.1 mph N/A   Clear
1:35 PM 56.7 °F - 33.1 °F 41% 29.66 in 10.0 mi SSW 10.4 mph - N/A   Clear
1:55 PM 57.6 °F - 33.8 °F 41% 29.65 in 10.0 mi SW 8.1 mph 16.1 mph N/A   Clear
2:15 PM 57.2 °F - 34.0 °F 42% 29.66 in 10.0 mi SSW 6.9 mph 16.1 mph N/A   Clear
2:35 PM 57.7 °F - 34.0 °F 41% 29.67 in 10.0 mi SSW 9.2 mph 18.4 mph N/A   Clear
2:55 PM 58.6 °F - 34.2 °F 40% 29.68 in 10.0 mi SSW 9.2 mph - N/A   Clear
3:15 PM 58.6 °F - 34.3 °F 40% 29.68 in 10.0 mi South 9.2 mph - N/A   Clear
3:35 PM 58.8 °F - 33.4 °F 38% 29.68 in 10.0 mi Calm Calm - N/A   Clear
3:55 PM 59.0 °F - 32.7 °F 37% 29.69 in 10.0 mi Calm Calm - N/A   Clear
4:15 PM 57.0 °F - 34.5 °F 43% 29.69 in 10.0 mi NNW 6.9 mph - N/A   Clear
4:35 PM 51.3 °F - 35.2 °F 54% 29.70 in 10.0 mi NNW 4.6 mph - N/A   Clear
4:55 PM 52.2 °F - 34.9 °F 52% 29.72 in 10.0 mi North 8.1 mph - N/A   Clear
5:15 PM 52.5 °F - 34.0 °F 49% 29.74 in 10.0 mi North 11.5 mph - N/A   Clear
5:35 PM 50.5 °F - 33.4 °F 52% 29.75 in 10.0 mi North 6.9 mph - N/A   Clear
5:55 PM 49.1 °F - 33.1 °F 54% 29.78 in 10.0 mi North 11.5 mph 17.3 mph N/A   Clear
6:15 PM 47.8 °F - 32.7 °F 56% 29.80 in 10.0 mi NNE 12.7 mph 16.1 mph N/A   Clear
6:35 PM 46.2 °F 39.5 °F 32.5 °F 59% 29.81 in 10.0 mi North 16.1 mph 23.0 mph N/A   Clear
6:55 PM 45.1 °F 40.3 °F 32.2 °F 60% 29.82 in 10.0 mi North 9.2 mph - N/A   Clear
7:15 PM 43.7 °F 38.6 °F 32.0 °F 63% 29.83 in 10.0 mi North 9.2 mph - N/A   Clear
7:35 PM 43.2 °F 40.5 °F 32.0 °F 65% 29.83 in 10.0 mi NNE 4.6 mph - N/A   Clear
7:55 PM 43.0 °F 40.3 °F 31.8 °F 65% 29.84 in 10.0 mi NNE 4.6 mph - N/A   Clear
8:15 PM 40.1 °F 38.0 °F 31.5 °F 71% 29.85 in 10.0 mi NNE 3.5 mph - N/A   Clear
8:35 PM 40.3 °F 37.1 °F 31.1 °F 70% 29.85 in 10.0 mi NNE 4.6 mph - N/A   Clear
8:55 PM 40.5 °F 35.8 °F 31.8 °F 71% 29.85 in 10.0 mi NNE 6.9 mph - N/A   Clear
9:15 PM 36.1 °F 32.3 °F 30.7 °F 81% 29.86 in 10.0 mi East 4.6 mph - N/A   Clear
9:35 PM 39.6 °F 37.4 °F 31.1 °F 72% 29.86 in 10.0 mi NE 3.5 mph - N/A   Clear
9:55 PM 36.0 °F 31.1 °F 30.4 °F 80% 29.87 in 10.0 mi North 5.8 mph - N/A   Clear
10:15 PM 34.3 °F - 29.8 °F 84% 29.87 in 10.0 mi Calm Calm - N/A   Clear
10:35 PM 34.5 °F 30.4 °F 30.2 °F 84% 29.87 in 10.0 mi North 4.6 mph - N/A   Clear
10:55 PM 37.4 °F 33.8 °F 30.9 °F 77% 29.87 in 10.0 mi NNE 4.6 mph - N/A   Clear
11:15 PM 36.7 °F 32.0 °F 30.7 °F 79% 29.87 in 10.0 mi NNE 5.8 mph - N/A   Clear
11:35 PM 35.6 °F 31.7 °F 30.2 °F 81% 29.86 in 10.0 mi North 4.6 mph - N/A   Clear
11:55 PM 33.8 °F 30.8 °F 29.7 °F 85% 29.85 in 10.0 mi North 3.5 mph - N/A   Clear